sat.trackr.live / text

‹ back to catalog

IRIDE-MS2-HEO-12

NORAD 68984 · 2026-100E

PAYLOAD ACTIVE UNKNOWN

§ Identity

Operator
Country
IT
Launch date
2026-05-03
Launch site
AFWTR
Launch vehicle
Mass (kg)
RCS (m²)

External: N2YO · Heavens-Above · Gunter

§ Orbital elements

Epoch: 2026-09-20T04:27:23.143392Z

Period
96.59 min
Inclination
97.7206°
Eccentricity
0.0003585
Mean motion
14.90852705 rev/d
Perigee alt
592.8 km
Apogee alt
597.8 km
Semi-major
6,973.4 km
B*
9.9884e-5
RAAN
158.6200°
Arg perigee
169.9435°
Mean anomaly
190.1856°
Rev number
2,085

§ Raw data

IRIDE-MS2-HEO-121 68984U 26100E   26263.18568453  .00000929  00000+0  99884-4 0  99942 68984  97.7206 158.6200 0003585 169.9435 190.1856 14.90852705 20854

JSON: /api/v1/satellites/68984 · /tle

For live sub-satellite position, see the globe view (requires WebGL).

§ Visibility from observer

Set your observer location to see the next 7 days of passes ≥ 10°. The values pass through the URL so the page stays shareable.

No JS? Fill the form by hand. The geolocation button needs JavaScript.